| time (UTC) | temp F | wind direction | speed MPH | gust MPH | rain 1hr in | rain 24hr in | rain mn in | humidity % | barometer mb |
| 20260502224004 | 73 | 61 | 0.0 | 0.0 | 0.00 | 0.00 | 0.00 | 27 | 1019.9 |
| 20260502223504 | 72 | 53 | 0.0 | 0.0 | 0.00 | 0.00 | 0.00 | 28 | 1020.0 |
| 20260502222504 | 74 | 55 | 0.0 | 0.0 | 0.00 | 0.00 | 0.00 | 26 | 1020.1 |
| 20260502222005 | 72 | 15 | 0.0 | 1.0 | 0.00 | 0.00 | 0.00 | 25 | 1020.1 |
| 20260502221504 | 72 | 56 | 0.0 | 0.0 | 0.00 | 0.00 | 0.00 | 27 | 1020.2 |
| 20260502221004 | 72 | 52 | 0.0 | 0.0 | 0.00 | 0.00 | 0.00 | 26 | 1020.1 |
| 20260502220505 | 72 | 61 | 0.0 | 0.0 | 0.00 | 0.00 | 0.00 | 28 | 1020.2 |
| 20260502220004 | 73 | 44 | 0.0 | 0.0 | 0.00 | 0.00 | 0.00 | 28 | 1020.2 |
| 20260502215504 | 73 | 44 | 0.0 | 0.0 | 0.00 | 0.00 | 0.00 | 28 | 1020.2 |
| 20260502215004 | 71 | 57 | 0.0 | 0.0 | 0.00 | 0.00 | 0.00 | 25 | 1020.3 |
| 20260502214504 | 72 | 60 | 0.0 | 1.0 | 0.00 | 0.00 | 0.00 | 27 | 1020.4 |
| 20260502214004 | 73 | 76 | 0.0 | 1.0 | 0.00 | 0.00 | 0.00 | 25 | 1020.4 |
| 20260502213504 | 74 | 23 | 0.0 | 0.0 | 0.00 | 0.00 | 0.00 | 25 | 1020.4 |
| 20260502212504 | 73 | 59 | 0.0 | 3.0 | 0.00 | 0.00 | 0.00 | 27 | 1020.4 |
| 20260502212004 | 73 | 62 | 0.0 | 1.0 | 0.00 | 0.00 | 0.00 | 27 | 1020.5 |
| 20260502211505 | 74 | 49 | 0.0 | 0.0 | 0.00 | 0.00 | 0.00 | 31 | 1020.5 |
| 20260502211004 | 73 | 46 | 0.0 | 0.0 | 0.00 | 0.00 | 0.00 | 30 | 1020.6 |
| 20260502210504 | 72 | 66 | 0.0 | 0.0 | 0.00 | 0.00 | 0.00 | 30 | 1020.7 |
| 20260502210004 | 72 | 67 | 0.0 | 0.0 | 0.00 | 0.00 | 0.00 | 34 | 1020.7 |
| 20260502205503 | 71 | 58 | 0.0 | 0.0 | 0.00 | 0.00 | 0.00 | 36 | 1020.7 |
| 20260502204504 | 70 | 79 | 0.0 | 6.0 | 0.00 | 0.00 | 0.00 | 36 | 1020.7 |
| 20260502203503 | 71 | 66 | 0.0 | 0.0 | 0.00 | 0.00 | 0.00 | 36 | 1020.8 |
| 20260502202504 | 73 | 68 | 0.0 | 1.0 | 0.00 | 0.00 | 0.00 | 34 | 1020.8 |
| 20260502202004 | 73 | 34 | 0.0 | 0.0 | 0.00 | 0.00 | 0.00 | 32 | 1020.8 |
| 20260502201503 | 72 | 43 | 0.0 | 0.0 | 0.00 | 0.00 | 0.00 | 34 | 1020.8 |
| 20260502201004 | 71 | 54 | 0.0 | 0.0 | 0.00 | 0.00 | 0.00 | 32 | 1020.9 |
| 20260502200004 | 72 | 56 | 0.0 | 0.0 | 0.00 | 0.00 | 0.00 | 34 | 1020.9 |
| 20260502195503 | 72 | 46 | 0.0 | 1.0 | 0.00 | 0.00 | 0.00 | 35 | 1020.9 |
| 20260502195004 | 71 | 21 | 0.0 | 1.0 | 0.00 | 0.00 | 0.00 | 34 | 1020.9 |
| 20260502194504 | 70 | 49 | 0.0 | 1.0 | 0.00 | 0.00 | 0.00 | 35 | 1020.9 |
| 20260502193504 | 68 | 80 | 0.0 | 0.0 | 0.00 | 0.00 | 0.00 | 37 | 1021.0 |
| 20260502193004 | 68 | 93 | 0.0 | 0.0 | 0.00 | 0.00 | 0.00 | 32 | 1021.0 |
| 20260502192504 | 68 | 84 | 0.0 | 0.0 | 0.00 | 0.00 | 0.00 | 39 | 1021.0 |
| 20260502192004 | 68 | 134 | 0.0 | 0.0 | 0.00 | 0.00 | 0.00 | 37 | 1021.0 |
| 20260502191503 | 67 | 85 | 0.0 | 0.0 | 0.00 | 0.00 | 0.00 | 41 | 1021.0 |
| 20260502191003 | 67 | 85 | 0.0 | 0.0 | 0.00 | 0.00 | 0.00 | 41 | 1021.2 |
| 20260502190504 | 66 | 114 | 0.0 | 0.0 | 0.00 | 0.00 | 0.00 | 41 | 1021.2 |
| 20260502190004 | 67 | 108 | 0.0 | 0.0 | 0.00 | 0.00 | 0.00 | 40 | 1021.2 |
| 20260502185504 | 67 | 61 | 0.0 | 0.0 | 0.00 | 0.00 | 0.00 | 40 | 1021.2 |
| 20260502185004 | 67 | 54 | 0.0 | 0.0 | 0.00 | 0.00 | 0.00 | 40 | 1021.2 |
| 20260502184503 | 66 | 83 | 0.0 | 0.0 | 0.00 | 0.00 | 0.00 | 41 | 1021.2 |
| 20260502184004 | 66 | 65 | 0.0 | 0.0 | 0.00 | 0.00 | 0.00 | 38 | 1021.2 |
| 20260502183504 | 67 | 86 | 0.0 | 0.0 | 0.00 | 0.00 | 0.00 | 42 | 1021.2 |
| 20260502183004 | 66 | 72 | 0.0 | 1.0 | 0.00 | 0.00 | 0.00 | 39 | 1021.2 |
| 20260502182504 | 66 | 92 | 0.0 | 1.0 | 0.00 | 0.00 | 0.00 | 39 | 1021.2 |
| 20260502182004 | 66 | 82 | 0.0 | 0.0 | 0.00 | 0.00 | 0.00 | 40 | 1021.2 |
| 20260502181005 | 66 | 137 | 0.0 | 2.0 | 0.00 | 0.00 | 0.00 | 38 | 1021.3 |
| 20260502180504 | 66 | 105 | 0.0 | 1.0 | 0.00 | 0.00 | 0.00 | 42 | 1021.3 |
| 20260502164003 | 64 | 159 | 0.0 | 0.0 | 0.00 | 0.00 | 0.00 | 34 | 1021.2 |
| 20260502163504 | 64 | 139 | 0.0 | 0.0 | 0.00 | 0.00 | 0.00 | 35 | 1021.1 |
| 20260502163004 | 64 | 150 | 0.0 | 0.0 | 0.00 | 0.00 | 0.00 | 38 | 1021.1 |
| 20260502162504 | 63 | 156 | 0.0 | 0.0 | 0.00 | 0.00 | 0.00 | 38 | 1021.1 |
| 20260502161504 | 62 | 162 | 0.0 | 1.0 | 0.00 | 0.00 | 0.00 | 44 | 1021.1 |
| 20260502161004 | 61 | 127 | 0.0 | 0.0 | 0.00 | 0.00 | 0.00 | 53 | 1021.1 |
| 20260502160504 | 60 | 160 | 0.0 | 1.0 | 0.00 | 0.00 | 0.00 | 55 | 1021.1 |
| 20260502152004 | 56 | 152 | 0.0 | 0.0 | 0.00 | 0.00 | 0.00 | 62 | 1021.2 |
| 20260502151504 | 55 | 157 | 0.0 | 0.0 | 0.00 | 0.00 | 0.00 | 63 | 1021.1 |
| 20260502151004 | 55 | 157 | 0.0 | 0.0 | 0.00 | 0.00 | 0.00 | 64 | 1021.2 |
| 20260502150504 | 54 | 156 | 0.0 | 0.0 | 0.00 | 0.00 | 0.00 | 66 | 1021.2 |
| 20260502123504 | 49 | 233 | 0.0 | 0.0 | 0.00 | 0.00 | 0.00 | 60 | 1020.9 |
| 20260502123005 | 49 | 233 | 0.0 | 0.0 | 0.00 | 0.00 | 0.00 | 60 | 1020.9 |
| 20260502122504 | 49 | 233 | 0.0 | 0.0 | 0.00 | 0.00 | 0.00 | 60 | 1020.8 |
| 20260502121504 | 49 | 233 | 0.0 | 0.0 | 0.00 | 0.00 | 0.00 | 60 | 1020.8 |
| 20260502121005 | 49 | 233 | 0.0 | 0.0 | 0.00 | 0.00 | 0.00 | 60 | 1020.8 |
| 20260502120504 | 49 | 233 | 0.0 | 0.0 | 0.00 | 0.00 | 0.00 | 60 | 1020.9 |
| 20260502115504 | 49 | 233 | 0.0 | 0.0 | 0.00 | 0.00 | 0.00 | 60 | 1020.8 |
| 20260502113004 | 50 | 233 | 0.0 | 0.0 | 0.00 | 0.00 | 0.00 | 55 | 1020.9 |
| 20260502112504 | 51 | 233 | 0.0 | 0.0 | 0.00 | 0.00 | 0.00 | 54 | 1020.8 |
| 20260502112004 | 50 | 233 | 0.0 | 0.0 | 0.00 | 0.00 | 0.00 | 54 | 1020.8 |
| 20260502111504 | 50 | 233 | 0.0 | 0.0 | 0.00 | 0.00 | 0.00 | 54 | 1020.8 |
| 20260502111004 | 50 | 233 | 0.0 | 0.0 | 0.00 | 0.00 | 0.00 | 56 | 1020.9 |
| 20260502110504 | 50 | 233 | 0.0 | 0.0 | 0.00 | 0.00 | 0.00 | 56 | 1020.9 |
| 20260502110004 | 49 | 233 | 0.0 | 0.0 | 0.00 | 0.00 | 0.00 | 58 | 1020.9 |
| 20260502105503 | 49 | 233 | 0.0 | 0.0 | 0.00 | 0.00 | 0.00 | 58 | 1021.0 |
| 20260502105004 | 49 | 233 | 0.0 | 0.0 | 0.00 | 0.00 | 0.00 | 57 | 1020.9 |
| 20260502104504 | 49 | 233 | 0.0 | 0.0 | 0.00 | 0.00 | 0.00 | 57 | 1021.0 |
| 20260502103504 | 50 | 233 | 0.0 | 0.0 | 0.00 | 0.00 | 0.00 | 55 | 1020.9 |
| 20260502103004 | 50 | 233 | 0.0 | 0.0 | 0.00 | 0.00 | 0.00 | 54 | 1021.0 |
| 20260502102504 | 51 | 233 | 0.0 | 0.0 | 0.00 | 0.00 | 0.00 | 52 | 1021.0 |
| 20260502101504 | 52 | 233 | 0.0 | 0.0 | 0.00 | 0.00 | 0.00 | 49 | 1020.9 |
| 20260502101005 | 53 | 233 | 0.0 | 0.0 | 0.00 | 0.00 | 0.00 | 47 | 1020.9 |
| 20260502091504 | 53 | 233 | 0.0 | 0.0 | 0.00 | 0.00 | 0.00 | 46 | 1020.9 |
| 20260502091004 | 52 | 233 | 0.0 | 0.0 | 0.00 | 0.00 | 0.00 | 47 | 1020.9 |
| 20260502090504 | 52 | 233 | 0.0 | 0.0 | 0.00 | 0.00 | 0.00 | 48 | 1021.0 |
| 20260502071504 | 53 | 233 | 0.0 | 0.0 | 0.00 | 0.00 | 0.00 | 51 | 1021.3 |
| 20260502071004 | 53 | 233 | 0.0 | 0.0 | 0.00 | 0.00 | 0.00 | 51 | 1021.3 |
| 20260502070504 | 53 | 233 | 0.0 | 0.0 | 0.00 | 0.00 | 0.00 | 51 | 1021.3 |
| 20260502070004 | 54 | 233 | 0.0 | 0.0 | 0.00 | 0.00 | 0.00 | 50 | 1021.3 |
| 20260502065504 | 55 | 233 | 0.0 | 0.0 | 0.00 | 0.00 | 0.00 | 49 | 1021.3 |
| 20260502065004 | 55 | 233 | 0.0 | 0.0 | 0.00 | 0.00 | 0.00 | 47 | 1021.3 |
| 20260502064504 | 55 | 233 | 0.0 | 0.0 | 0.00 | 0.00 | 0.00 | 48 | 1021.3 |
| 20260502064004 | 55 | 233 | 0.0 | 0.0 | 0.00 | 0.00 | 0.00 | 48 | 1021.3 |
| 20260502062004 | 55 | 233 | 0.0 | 0.0 | 0.00 | 0.00 | 0.00 | 48 | 1021.3 |
| 20260502061505 | 55 | 233 | 0.0 | 0.0 | 0.00 | 0.00 | 0.00 | 49 | 1021.3 |
| 20260502061004 | 56 | 233 | 0.0 | 0.0 | 0.00 | 0.00 | 0.00 | 47 | 1021.2 |
| 20260502060505 | 58 | 24 | 0.0 | 0.0 | 0.00 | 0.00 | 0.00 | 44 | 1021.3 |
| 20260502055004 | 58 | 24 | 0.0 | 0.0 | 0.00 | 0.00 | 0.00 | 43 | 1021.3 |
| 20260502054504 | 58 | 24 | 0.0 | 0.0 | 0.00 | 0.00 | 0.00 | 44 | 1021.3 |
| 20260502054004 | 58 | 24 | 0.0 | 0.0 | 0.00 | 0.00 | 0.00 | 45 | 1021.4 |
| 20260502053504 | 58 | 25 | 0.0 | 0.0 | 0.00 | 0.00 | 0.00 | 43 | 1021.4 |
| 20260502053004 | 58 | 25 | 0.0 | 0.0 | 0.00 | 0.00 | 0.00 | 43 | 1021.4 |
| 20260502052505 | 58 | 25 | 0.0 | 0.0 | 0.00 | 0.00 | 0.00 | 42 | 1021.4 |
| 20260502052005 | 58 | 26 | 0.0 | 0.0 | 0.00 | 0.00 | 0.00 | 42 | 1021.4 |
| 20260502051505 | 59 | 25 | 0.0 | 0.0 | 0.00 | 0.00 | 0.00 | 40 | 1021.4 |
| 20260502051005 | 59 | 25 | 0.0 | 0.0 | 0.00 | 0.00 | 0.00 | 39 | 1021.5 |
| 20260502050504 | 59 | 25 | 0.0 | 0.0 | 0.00 | 0.00 | 0.00 | 38 | 1021.4 |
| 20260502050004 | 59 | 25 | 0.0 | 0.0 | 0.00 | 0.00 | 0.00 | 39 | 1021.4 |
| 20260502045505 | 59 | 25 | 0.0 | 0.0 | 0.00 | 0.00 | 0.00 | 40 | 1021.4 |
| 20260502044504 | 57 | 25 | 0.0 | 0.0 | 0.00 | 0.00 | 0.00 | 43 | 1021.4 |
| 20260502044004 | 56 | 26 | 0.0 | 0.0 | 0.00 | 0.00 | 0.00 | 46 | 1021.4 |
| 20260502043504 | 56 | 26 | 0.0 | 0.0 | 0.00 | 0.00 | 0.00 | 47 | 1021.5 |
| 20260502043004 | 58 | 26 | 0.0 | 0.0 | 0.00 | 0.00 | 0.00 | 44 | 1021.5 |
| 20260502042504 | 58 | 26 | 0.0 | 0.0 | 0.00 | 0.00 | 0.00 | 40 | 1021.4 |
| 20260502041504 | 60 | 27 | 0.0 | 0.0 | 0.00 | 0.00 | 0.00 | 38 | 1021.4 |
| 20260502040005 | 60 | 27 | 0.0 | 0.0 | 0.00 | 0.00 | 0.00 | 41 | 1021.3 |
| 20260502035504 | 60 | 27 | 0.0 | 0.0 | 0.00 | 0.00 | 0.00 | 40 | 1021.2 |
| 20260502035004 | 60 | 27 | 0.0 | 0.0 | 0.00 | 0.00 | 0.00 | 41 | 1021.2 |
| 20260502034504 | 61 | 27 | 0.0 | 0.0 | 0.00 | 0.00 | 0.00 | 42 | 1021.2 |
| 20260502033504 | 61 | 27 | 0.0 | 0.0 | 0.00 | 0.00 | 0.00 | 42 | 1021.1 |
| 20260502033004 | 62 | 27 | 0.0 | 0.0 | 0.00 | 0.00 | 0.00 | 41 | 1021.1 |
| 20260502032504 | 63 | 27 | 0.0 | 0.0 | 0.00 | 0.00 | 0.00 | 42 | 1021.0 |
| 20260502032005 | 63 | 27 | 0.0 | 0.0 | 0.00 | 0.00 | 0.00 | 39 | 1020.9 |
| 20260502031504 | 63 | 27 | 0.0 | 0.0 | 0.00 | 0.00 | 0.00 | 36 | 1020.9 |
| 20260502031004 | 63 | 27 | 0.0 | 0.0 | 0.00 | 0.00 | 0.00 | 38 | 1020.9 |
| 20260502030504 | 63 | 27 | 0.0 | 0.0 | 0.00 | 0.00 | 0.00 | 38 | 1020.9 |
| 20260502030004 | 62 | 27 | 0.0 | 0.0 | 0.00 | 0.00 | 0.00 | 41 | 1020.8 |
| 20260502025505 | 62 | 27 | 0.0 | 0.0 | 0.00 | 0.00 | 0.00 | 39 | 1020.8 |
| 20260502025004 | 62 | 27 | 0.0 | 0.0 | 0.00 | 0.00 | 0.00 | 38 | 1020.7 |
| 20260502024504 | 62 | 27 | 0.0 | 0.0 | 0.00 | 0.00 | 0.00 | 40 | 1020.8 |
| 20260502024004 | 62 | 27 | 0.0 | 0.0 | 0.00 | 0.00 | 0.00 | 41 | 1020.8 |
| 20260502023504 | 62 | 27 | 0.0 | 0.0 | 0.00 | 0.00 | 0.00 | 41 | 1020.7 |
| 20260502023004 | 62 | 27 | 0.0 | 0.0 | 0.00 | 0.00 | 0.00 | 42 | 1020.7 |
| 20260502022504 | 63 | 27 | 0.0 | 0.0 | 0.00 | 0.00 | 0.00 | 43 | 1020.7 |
| 20260502022004 | 63 | 27 | 0.0 | 0.0 | 0.00 | 0.00 | 0.00 | 43 | 1020.7 |
| 20260502021504 | 63 | 27 | 0.0 | 0.0 | 0.00 | 0.00 | 0.00 | 43 | 1020.7 |
| 20260502021004 | 63 | 27 | 0.0 | 0.0 | 0.00 | 0.00 | 0.00 | 44 | 1020.7 |
| 20260502020504 | 63 | 27 | 0.0 | 0.0 | 0.00 | 0.00 | 0.00 | 47 | 1020.7 |
| 20260502020004 | 63 | 27 | 0.0 | 0.0 | 0.00 | 0.00 | 0.00 | 47 | 1020.8 |
| 20260502015504 | 64 | 27 | 0.0 | 0.0 | 0.00 | 0.00 | 0.00 | 47 | 1020.8 |
| 20260502015004 | 64 | 26 | 0.0 | 0.0 | 0.00 | 0.00 | 0.00 | 47 | 1020.8 |
| 20260502014505 | 64 | 59 | 0.0 | 0.0 | 0.00 | 0.00 | 0.00 | 47 | 1020.8 |
| 20260502014004 | 64 | 58 | 0.0 | 0.0 | 0.00 | 0.00 | 0.00 | 48 | 1020.9 |
| 20260502013504 | 64 | 63 | 0.0 | 0.0 | 0.00 | 0.00 | 0.00 | 50 | 1020.9 |
| 20260502013004 | 64 | 62 | 0.0 | 0.0 | 0.00 | 0.00 | 0.00 | 49 | 1020.9 |
| 20260502011504 | 65 | 66 | 0.0 | 0.0 | 0.00 | 0.00 | 0.00 | 47 | 1020.9 |
| 20260502011004 | 65 | 66 | 0.0 | 0.0 | 0.00 | 0.00 | 0.00 | 45 | 1020.9 |
| 20260502010504 | 66 | 67 | 0.0 | 0.0 | 0.00 | 0.00 | 0.00 | 46 | 1021.0 |
| 20260502010004 | 66 | 67 | 0.0 | 0.0 | 0.00 | 0.00 | 0.00 | 42 | 1021.0 |
| 20260502005004 | 67 | 68 | 0.0 | 0.0 | 0.00 | 0.00 | 0.00 | 42 | 1021.0 |
| 20260502004503 | 68 | 62 | 0.0 | 0.0 | 0.00 | 0.00 | 0.00 | 40 | 1021.1 |
| 20260502004004 | 68 | 47 | 0.0 | 0.0 | 0.00 | 0.00 | 0.00 | 37 | 1021.1 |
| 20260502003504 | 68 | 49 | 0.0 | 0.0 | 0.00 | 0.00 | 0.00 | 37 | 1021.1 |
| 20260502003004 | 68 | 51 | 0.0 | 0.0 | 0.00 | 0.00 | 0.00 | 37 | 1021.2 |
| 20260502002003 | 68 | 66 | 0.0 | 0.0 | 0.00 | 0.00 | 0.00 | 39 | 1021.2 |
| 20260502001504 | 69 | 59 | 0.0 | 0.0 | 0.00 | 0.00 | 0.00 | 39 | 1021.2 |
| 20260502001004 | 69 | 52 | 0.0 | 0.0 | 0.00 | 0.00 | 0.00 | 36 | 1021.3 |
| 20260502000504 | 69 | 35 | 0.0 | 0.0 | 0.00 | 0.00 | 0.00 | 35 | 1021.3 |
| 20260502000004 | 68 | 29 | 0.0 | 1.0 | 0.00 | 0.00 | 0.00 | 36 | 1021.3 |
| 20260501235004 | 68 | 66 | 0.0 | 1.0 | 0.00 | 0.00 | 0.00 | 40 | 1021.4 |
| 20260501234504 | 68 | 58 | 0.0 | 0.0 | 0.00 | 0.00 | 0.00 | 42 | 1021.3 |
| 20260501234003 | 68 | 65 | 0.0 | 0.0 | 0.00 | 0.00 | 0.00 | 40 | 1021.4 |
| 20260501233504 | 68 | 63 | 0.0 | 0.0 | 0.00 | 0.00 | 0.00 | 36 | 1021.4 |
| 20260501233004 | 69 | 64 | 0.0 | 0.0 | 0.00 | 0.00 | 0.00 | 36 | 1021.5 |
| 20260501232503 | 70 | 45 | 0.0 | 0.0 | 0.00 | 0.00 | 0.00 | 36 | 1021.5 |
| 20260501232004 | 69 | 62 | 0.0 | 0.0 | 0.00 | 0.00 | 0.00 | 36 | 1021.6 |
| 20260501231504 | 69 | 73 | 0.0 | 0.0 | 0.00 | 0.00 | 0.00 | 36 | 1021.6 |
| 20260501231004 | 69 | 50 | 0.0 | 0.0 | 0.00 | 0.00 | 0.00 | 38 | 1021.6 |
| 20260501230504 | 69 | 60 | 0.0 | 0.0 | 0.00 | 0.00 | 0.00 | 37 | 1021.7 |
| 20260501230004 | 69 | 62 | 0.0 | 0.0 | 0.00 | 0.00 | 0.00 | 37 | 1021.8 |
| 20260501225504 | 70 | 30 | 0.0 | 0.0 | 0.00 | 0.00 | 0.00 | 35 | 1021.8 |
| 20260501225004 | 69 | 49 | 0.0 | 0.0 | 0.00 | 0.00 | 0.00 | 36 | 1021.8 |
| 20260501224503 | 68 | 43 | 0.0 | 0.0 | 0.00 | 0.00 | 0.00 | 36 | 1021.9 |